Hourly Data Report for February 07, 2017

All times are specified in Local Standard Time (LST). Add 1 hour to adjust for Daylight Saving Time where and when it is observed.

TORONTO CITY
ONTARIO

43°40'00.000" N
79°24'00.000" W
112.50 m
6158355
71508
XTO

Download Data

Hourly Data (February 2017)
Hourly Data Report for February 7, 2017
TIME Temp Definition
°C
Dew Point Definition
°C
Rel Hum Definition
%
Wind Dir Definition
10's deg

Wind Spd Definition
km/h
Visibility Definition
km
Stn Press Definition
kPa
Hmdx Definition


Wind Chill Definition


Weather Definition


00:00 1.8 -3.5 68 LegendMM LegendMM   99.85     LegendNANA
01:00 1.8 -2.8 71 LegendMM LegendMM   99.80     LegendNANA
02:00 1.7 -2.3 75 LegendMM LegendMM   99.79     LegendNANA
03:00 0.9 -1.9 82 LegendMM LegendMM   99.71     LegendNANA
04:00 0.9 -1.7 83 LegendMM LegendMM   99.72     LegendNANA
05:00 1.3 -1.4 82 LegendMM LegendMM   99.66     LegendNANA
06:00 1.4 -1.6 80 LegendMM LegendMM   99.58     LegendNANA
07:00 1.3 -2.2 78 LegendMM LegendMM   99.60     LegendNANA
08:00 0.6 -3.1 76 LegendMM LegendMM   99.57     LegendNANA
09:00 0.1 -3.5 77 LegendMM LegendMM   99.49     LegendNANA
10:00 -0.3 -3.5 79 LegendMM LegendMM   99.36     LegendNANA
11:00 -0.5 -3.2 82 LegendMM LegendMM   99.25     LegendNANA
12:00 -0.7 -2.2 90 LegendMM LegendMM   99.06     LegendNANA
13:00 -0.9 -2.2 91 LegendMM LegendMM   98.86     LegendNANA
14:00 -1.0 -2.1 92 LegendMM LegendMM   98.67     LegendNANA
15:00 -1.2 -2.2 93 LegendMM LegendMM   98.45     LegendNANA
16:00 -0.8 -1.7 94 LegendMM LegendMM   98.28     LegendNANA
17:00 -0.7 -1.6 93 LegendMM LegendMM   98.22     LegendNANA
18:00 -0.4 -1.3 94 LegendMM LegendMM   98.02     LegendNANA
19:00 0.3 -0.4 95 LegendMM LegendMM   97.86     LegendNANA
20:00 0.8 0.3 96 LegendMM LegendMM   97.82     LegendNANA
21:00 1.1 0.7 97 LegendMM LegendMM   97.74     LegendNANA
22:00 1.3 0.9 97 LegendMM LegendMM   97.58     LegendNANA
23:00 3.5 3.1 97 LegendMM LegendMM   97.61     LegendNANA

Notes on Data Quality.

Legend

  • E = Estimated
  • M = Missing
  • NA = Not Available
Date modified: